FW5647 Weather Reports


time (UTC)temp
F
wind
direction
speed
knots
gust
knots
rain 1hr
in
rain 24hr
in
rain mn
in
humidity
%
barometer
mb
20260831064547 69 0 0.0 0.9 0.00 0.44 0.00 92 1017.3
20260831063040 69 0 0.0 1.7 0.00 0.44 0.00 92 1017.3
20260831061553 68 0 0.0 1.7 0.00 0.44 0.00 93 1017.4
20260831060042 68 0 0.0 0.0 0.00 0.44 0.00 93 1017.5
20260831054545 68 0 0.0 0.0 0.00 0.44 0.00 93 1017.4
20260831053042 68 0 0.0 0.0 0.00 0.44 0.00 92 1017.6
20260831051549 68 0 0.0 0.9 0.00 0.44 0.00 93 1017.5
20260831050044 68 0 0.0 1.7 0.00 0.44 0.00 93 1017.4
20260831044542 68 165 0.0 2.6 0.00 0.45 0.00 93 1017.6
20260831043041 69 136 0.0 0.9 0.00 0.45 0.00 92 1017.7
20260831041542 69 0 0.0 0.0 0.00 0.45 0.00 91 1017.8
20260831040041 69 160 0.0 1.7 0.00 0.45 0.00 91 1017.9
20260831034544 69 135 0.0 1.7 0.00 0.45 0.45 91 1017.9
20260831033042 69 212 0.0 2.6 0.00 0.45 0.45 91 1017.9
20260831031545 69 204 0.0 2.6 0.00 0.45 0.45 91 1018.0
20260831030047 69 0 0.0 0.9 0.00 0.45 0.45 91 1017.7
20260831024607 69 103 0.0 1.7 0.00 0.45 0.45 91 1017.6
20260831023045 69 114 0.0 1.7 0.00 0.45 0.45 90 1017.5
20260831021540 70 114 0.0 2.6 0.00 0.45 0.45 90 1017.5
20260831020041 70 162 0.0 5.2 0.00 0.45 0.45 89 1017.3
20260831014541 70 155 0.9 3.5 0.00 0.45 0.45 89 1017.2
20260831013054 70 82 0.9 3.5 0.00 0.45 0.45 89 1017.1
20260831011542 70 115 1.7 3.5 0.00 0.45 0.45 89 1017.1
20260831010049 70 158 0.9 3.5 0.00 0.45 0.45 88 1017.1
20260831004547 70 87 2.6 5.2 0.00 0.45 0.45 88 1016.5
20260831003044 70 117 0.9 7.0 0.00 0.45 0.45 88 1016.6
20260831001541 70 104 1.7 6.1 0.00 0.45 0.45 87 1016.3
20260831000048 70 106 2.6 7.8 0.00 0.45 0.45 87 1016.5
20260830234547 70 113 2.6 7.0 0.00 0.45 0.45 87 1016.6
20260830233051 70 75 1.7 5.2 0.00 0.45 0.45 87 1017.0
20260830231540 70 65 1.7 6.1 0.00 0.45 0.45 87 1016.8
20260830230049 70 115 1.7 4.3 0.00 0.45 0.45 87 1017.1
20260830224543 70 138 1.7 4.3 0.00 0.45 0.45 88 1017.1
20260830223040 70 97 0.9 3.5 0.04 0.45 0.45 89 1017.3
20260830221545 70 103 0.9 2.6 0.10 0.45 0.45 90 1017.3
20260830220048 70 143 0.0 1.7 0.10 0.45 0.45 90 1017.5
20260830214541 70 0 0.0 2.6 0.10 0.45 0.45 88 1017.7
20260830213043 72 224 0.0 2.6 0.06 0.41 0.41 85 1018.0
20260830211541 73 0 0.0 1.7 0.00 0.35 0.35 81 1017.8
20260830210052 73 198 0.9 5.2 0.00 0.35 0.35 80 1017.5
20260830204543 73 175 0.0 4.3 0.00 0.35 0.35 80 1017.4
20260830203057 73 162 2.6 7.8 0.00 0.35 0.35 80 1017.0
20260830201547 74 131 1.7 9.6 0.00 0.35 0.35 79 1017.0
20260830200041 74 191 1.7 7.0 0.00 0.35 0.35 79 1017.4
20260830194542 74 104 3.5 8.7 0.00 0.35 0.35 79 1017.2
20260830193042 73 229 2.6 6.1 0.00 0.35 0.35 81 1017.2
20260830191541 72 98 0.0 4.3 0.00 0.35 0.35 82 1017.2
20260830190043 72 127 3.5 9.6 0.00 0.35 0.35 82 1017.2
20260830184542 72 110 2.6 6.1 0.00 0.35 0.35 83 1017.3
20260830183041 72 109 0.9 5.2 0.00 0.35 0.35 83 1017.7
20260830181554 72 160 2.6 7.8 0.00 0.35 0.35 82 1017.6
20260830180049 72 195 2.6 7.8 0.00 0.35 0.35 82 1017.3
20260830174542 72 87 3.5 11.3 0.00 0.35 0.35 82 1017.6
20260830173104 72 129 3.5 9.6 0.00 0.35 0.35 84 1018.0
20260830171544 71 214 4.3 9.6 0.00 0.35 0.35 86 1018.5
20260830170051 69 158 1.7 7.0 0.00 0.35 0.35 90 1018.9
20260830164605 69 104 1.7 6.1 0.00 0.35 0.35 90 1019.3
20260830163058 69 356 2.6 7.0 0.00 0.35 0.35 90 1019.6
20260830161547 68 167 1.7 4.3 0.00 0.35 0.35 92 1019.7
20260830160049 68 86 1.7 5.2 0.01 0.35 0.35 93 1019.8
20260830154542 67 146 0.9 2.6 0.03 0.35 0.35 94 1020.0
20260830153041 67 113 0.9 3.5 0.04 0.35 0.35 95 1019.9
20260830151549 66 167 0.9 2.6 0.05 0.35 0.35 95 1020.1
20260830150049 66 225 0.9 3.5 0.06 0.34 0.34 95 1020.3
20260830144557 65 234 0.9 4.3 0.07 0.32 0.32 95 1020.2
20260830143041 65 110 1.7 3.5 0.10 0.31 0.31 95 1020.4
20260830141541 65 226 0.9 5.2 0.12 0.30 0.30 95 1020.7
20260830140048 65 248 0.0 1.7 0.14 0.28 0.28 95 1020.8
20260830134542 65 247 0.0 0.9 0.15 0.25 0.25 95 1020.6
20260830133057 65 0 0.0 0.0 0.14 0.21 0.21 95 1020.8
20260830131548 65 0 0.0 1.7 0.12 0.18 0.18 95 1020.6
20260830130041 66 266 0.0 2.6 0.09 0.14 0.14 95 1020.6
20260830124603 65 0 0.0 0.9 0.05 0.10 0.10 95 1020.6
20260830123047 65 0 0.0 0.9 0.02 0.07 0.07 94 1020.4
20260830121539 65 0 0.0 0.0 0.01 0.06 0.06 94 1019.9
20260830120045 66 0 0.0 0.9 0.00 0.05 0.05 93 1019.6
20260830114546 66 0 0.0 1.7 0.00 0.05 0.05 93 1019.1
20260830113042 66 110 0.0 0.9 0.00 0.05 0.05 93 1018.5
20260830111543 66 116 0.9 3.5 0.00 0.05 0.05 93 1018.1
20260830110047 66 103 0.9 1.7 0.00 0.05 0.05 93 1018.2
20260830104541 65 106 0.9 1.7 0.00 0.05 0.05 93 1018.2
20260830103043 65 104 0.9 2.6 0.00 0.05 0.05 93 1018.3
20260830101540 65 108 0.9 2.6 0.00 0.05 0.05 94 1018.4
20260830100050 65 115 0.9 2.6 0.00 0.05 0.05 94 1018.6
20260830094545 65 117 0.0 0.9 0.00 0.05 0.05 95 1018.8
20260830093051 65 0 0.0 1.7 0.03 0.05 0.05 95 1018.9
20260830091542 65 98 0.0 1.7 0.04 0.05 0.05 95 1018.8
20260830090050 65 0 0.0 0.9 0.04 0.05 0.05 95 1018.9
20260830084549 65 0 0.0 0.0 0.04 0.05 0.05 95 1019.3
20260830083104 65 0 0.0 0.0 0.01 0.02 0.02 94 1019.6
20260830081541 64 0 0.0 0.0 0.00 0.01 0.01 94 1019.5
20260830080040 64 0 0.0 0.0 0.00 0.01 0.01 94 1019.7
20260830074548 64 0 0.0 0.0 0.00 0.01 0.01 94 1019.7
20260830073042 64 0 0.0 0.0 0.00 0.01 0.01 94 1019.7
20260830071546 65 0 0.0 0.0 0.00 0.01 0.01 94 1019.7